Dublin, Ireland

8:42 PM GMT on January 19, 2018 (GMT +0000)
Dublin International

Weather History for EIDW - March, 2014

Change the Weather History Date:

Monday, March 24, 2014

  Actual Average Record
Temperature  
Mean Temperature 40 °F -  
Max Temperature 46 °F 52 °F 59 °F (2012)
Min Temperature 35 °F 40 °F 30 °F (2017)
Degree Days  
Heating Degree Days 24    
Moisture  
Dew Point 38 °F    
Average Humidity 82    
Maximum Humidity 100    
Minimum Humidity 63    
Precipitation  
Precipitation 0.08 in 0.07 in - ()
Sea Level Pressure  
Sea Level Pressure 29.62 in    
Wind  
Wind Speed 16 mph ()    
Max Wind Speed 36 mph    
Max Gust Speed 50 mph    
Visibility 8.5 miles    
Events Rain    
Averages and records for this station are not official NWS values.
T = Trace of Precipitation, MM = Missing Value Source: Averaged Metar Reports

Daily Weather History Graph

Daily Weather History Graph

Search for Another Location

Airport or City:

Trip Planner

Search our weather history database for the weather conditions in past years. The results will help you decide how hot, cold, wet, or windy it might be!

Date:

Astronomy

Mar. 24, 2014 Rise Set
Actual Time 6:18 AM GMT 6:45 PM GMT
Civil Twilight 5:43 AM GMT 7:20 PM GMT
Nautical Twilight 5:01 AM GMT 8:02 PM GMT
Astronomical Twilight 4:17 AM GMT 8:46 PM GMT
Moon 2:23 AM GMT (3/24) 11:08 AM GMT (3/24)
Length of Visible Light 13h 37m
Length of Day
12h 27m
Last Quarter, 45% of the Moon is Illuminated
Mar 24
Last Quarter
Mar 30
New
Apr 7
First Quarter
Apr 15
Full
Apr 22
Last Quarter

Hourly Weather History & Observations

Time (GMT) Temp. Windchill Dew Point Humidity Pressure Visibility Wind Dir Wind Speed Gust Speed Precip Events Conditions
12:00 AM 37 °F - 33 °F 78% 29.91 in 19 mi SE 6.7 mph - -   Scattered Clouds
12:00 AM 37.4 °F 31.4 °F 32.0 °F 81% 29.89 in 6.2 mi SE 8.1 mph - N/A   Partly Cloudy
12:30 AM 37.4 °F 32.1 °F 32.0 °F 81% 29.89 in 6.2 mi SE 6.9 mph - N/A   Partly Cloudy
1:00 AM 39 °F - 32 °F 66% 29.89 in 19 mi ESE 6.7 mph - -   Scattered Clouds
1:00 AM 39.2 °F 34.2 °F 32.0 °F 75% 29.86 in 6.2 mi ESE 6.9 mph - N/A   Partly Cloudy
1:30 AM 39.2 °F 33.6 °F 32.0 °F 75% 29.86 in 6.2 mi SE 8.1 mph - N/A   Scattered Clouds
2:00 AM 37 °F - 32 °F 74% 29.86 in 19 mi SE 6.7 mph - -   Scattered Clouds
2:00 AM 37.4 °F 32.1 °F 32.0 °F 81% 29.83 in 6.2 mi SE 6.9 mph - N/A   Scattered Clouds
2:30 AM 39.2 °F 34.2 °F 32.0 °F 75% 29.83 in 6.2 mi SE 6.9 mph - N/A   Scattered Clouds
3:00 AM 38 °F - 32 °F 70% 29.84 in 19 mi SE 6.7 mph - -   Scattered Clouds
3:00 AM 37.4 °F 32.8 °F 32.0 °F 81% 29.83 in 6.2 mi SE 5.8 mph - N/A   Scattered Clouds
3:30 AM 37.4 °F 32.1 °F 33.8 °F 87% 29.80 in 6.2 mi SE 6.9 mph - N/A   Scattered Clouds
4:00 AM 38 °F - 34 °F 81% 29.83 in 19 mi SE 11.2 mph - -   Scattered Clouds
4:00 AM 37.4 °F 29.8 °F 33.8 °F 87% 29.80 in 6.2 mi SE 11.5 mph - N/A   Scattered Clouds
4:30 AM 37.4 °F 31.4 °F 33.8 °F 87% 29.80 in 6.2 mi SSE 8.1 mph - N/A   Mostly Cloudy
5:00 AM 39 °F - 36 °F 84% 29.79 in 19 mi SSE 6.7 mph - -   Scattered Clouds
5:00 AM 39.2 °F 34.2 °F 35.6 °F 87% 29.77 in 6.2 mi SSE 6.9 mph - N/A   Scattered Clouds
5:30 AM 39.2 °F 32.5 °F 35.6 °F 87% 29.77 in 6.2 mi SSE 10.4 mph - N/A   Mostly Cloudy
6:00 AM 41 °F - 36 °F 77% 29.76 in 19 mi SSE 13.4 mph - -   Scattered Clouds
6:00 AM 41.0 °F 33.5 °F 35.6 °F 81% 29.74 in 6.2 mi SSE 13.8 mph - N/A   Mostly Cloudy
6:30 AM 41.0 °F 32.5 °F 35.6 °F 81% 29.74 in 6.2 mi SE 17.3 mph - N/A   Mostly Cloudy
7:00 AM 42 °F - 35 °F 70% 29.74 in 22 mi SSE 17.9 mph - -   Scattered Clouds
7:00 AM 42.8 °F 34.3 °F 35.6 °F 76% 29.71 in 6.2 mi SSE 19.6 mph - N/A   Mostly Cloudy
7:30 AM 42.8 °F 33.8 °F 35.6 °F 76% 29.71 in 6.2 mi SSE 21.9 mph - N/A   Scattered Clouds
8:00 AM 44 °F - 35 °F 63% 29.71 in 22 mi SSE 24.6 mph - -   Scattered Clouds
8:00 AM 44.6 °F 35.9 °F 35.6 °F 71% 29.68 in 6.2 mi SSE 23.0 mph 38.0 mph N/A   Mostly Cloudy
8:30 AM 44.6 °F 35.9 °F 37.4 °F 76% 29.68 in 6.2 mi SSE 23.0 mph - N/A   Mostly Cloudy
9:00 AM 44 °F - 37 °F 69% 29.69 in 19 mi SE 24.6 mph - -   Mostly Cloudy
9:00 AM 44.6 °F 35.5 °F 37.4 °F 76% 29.65 in 6.2 mi SE 25.3 mph 36.8 mph N/A   Mostly Cloudy
9:30 AM 44.6 °F 35.3 °F 37.4 °F 76% 29.65 in 6.2 mi SE 26.5 mph 38.0 mph N/A   Mostly Cloudy
10:00 AM 44 °F - 38 °F 71% 29.66 in 19 mi SE 26.8 mph - -   Mostly Cloudy
10:00 AM 42.8 °F 32.5 °F 37.4 °F 81% 29.65 in 6.2 mi SE 28.8 mph 42.6 mph N/A   Mostly Cloudy
10:30 AM 44.6 °F 34.9 °F 37.4 °F 76% 29.62 in 6.2 mi SE 28.8 mph - N/A   Mostly Cloudy
11:00 AM 44 °F - 37 °F 69% 29.64 in 19 mi SE 26.8 mph - -   Mostly Cloudy
11:00 AM 42.8 °F 32.9 °F 37.4 °F 81% 29.62 in 6.2 mi SE 26.5 mph 38.0 mph N/A   Mostly Cloudy
11:30 AM 42.8 °F 32.1 °F 37.4 °F 81% 29.59 in 6.2 mi SE 31.1 mph 43.7 mph N/A   Mostly Cloudy
12:00 PM 44 °F - 37 °F 68% 29.62 in 16 mi SE 22.4 mph - - Rain Light Rain
12:00 PM 44.6 °F 36.1 °F 37.4 °F 76% 29.59 in 6.2 mi SE 21.9 mph 34.5 mph N/A   Mostly Cloudy
12:30 PM 44.6 °F 34.6 °F 37.4 °F 76% 29.59 in 6.2 mi SE 31.1 mph 42.6 mph N/A Rain Light Rain
1:00 PM 44 °F - 39 °F 75% 29.57 in 14 mi SSE 31.3 mph - - Rain Light Rain
1:00 PM 44.6 °F 34.7 °F 39.2 °F 81% 29.56 in 6.2 mi SSE 29.9 mph 43.7 mph N/A Rain Light Rain
1:30 PM 42.8 °F 31.8 °F 39.2 °F 87% 29.53 in 6.2 mi SE 33.4 mph 48.3 mph N/A Rain Light Rain
2:00 PM 43 °F - 39 °F 80% 29.55 in 12 mi SSE 31.3 mph - - Rain Light Rain
2:00 PM 42.8 °F 32.1 °F 39.2 °F 87% 29.53 in 6.2 mi SSE 31.1 mph 44.9 mph N/A Rain Light Rain
2:30 PM 42.8 °F 32.1 °F 39.2 °F 87% 29.53 in 6.2 mi SE 31.1 mph - N/A Rain Light Rain
3:00 PM 43 °F - 40 °F 86% 29.53 in 9 mi SE 26.8 mph - - Rain Light Rain
3:00 PM 42.8 °F 32.5 °F 41.0 °F 93% 29.50 in 6.2 mi SE 28.8 mph 40.3 mph N/A Rain Light Rain
3:30 PM 42.8 °F 32.3 °F 41.0 °F 93% 29.50 in 6.2 mi SE 29.9 mph 44.9 mph N/A Rain Light Rain
4:00 PM 43 °F - 40 °F 85% 29.48 in 8 mi SE 35.8 mph - - Rain Light Rain
4:00 PM 42.8 °F 31.4 °F 41.0 °F 93% 29.47 in 6.2 mi SE 35.7 mph 48.3 mph N/A Rain Light Rain
4:30 PM 42.8 °F 32.1 °F 41.0 °F 93% 29.44 in 6.2 mi SE 31.1 mph 44.9 mph N/A Rain Light Rain
5:00 PM 43 °F - 41 °F 91% 29.45 in 4 mi SSE 31.3 mph - - Rain Light Rain
5:00 PM 42.8 °F 32.1 °F 41.0 °F 93% 29.44 in 6.2 mi SSE 31.1 mph 49.5 mph N/A Rain Light Rain
5:30 PM 42.8 °F 32.7 °F 41.0 °F 93% 29.44 in 5.6 mi SSE 27.6 mph 40.3 mph N/A   Light Drizzle
6:00 PM 44 °F - 42 °F 92% 29.44 in 6 mi SE 29.1 mph - - Rain Light Drizzle
6:00 PM 44.6 °F 34.7 °F 42.8 °F 93% 29.42 in 6.2 mi SE 29.9 mph - N/A   Light Drizzle
6:30 PM 44.6 °F 35.3 °F 42.8 °F 93% 29.42 in 6.2 mi SE 26.5 mph 38.0 mph N/A   Light Drizzle
7:00 PM 44 °F - 43 °F 94% 29.44 in 6 mi SE 24.6 mph - - Rain Light Drizzle
7:00 PM 44.6 °F 35.7 °F 42.8 °F 93% 29.42 in 6.2 mi SSE 24.2 mph 40.3 mph N/A   Light Drizzle
7:30 PM 44.6 °F 36.1 °F 42.8 °F 93% 29.42 in 6.2 mi SSE 21.9 mph 33.4 mph N/A   Light Drizzle
8:00 PM 45 °F - 44 °F 94% 29.43 in 6 mi SSE 17.9 mph - - Rain Light Drizzle
8:00 PM 44.6 °F 36.6 °F 44.6 °F 100% 29.42 in 5.6 mi SSE 19.6 mph - N/A   Light Drizzle
8:30 PM 46.4 °F 39.5 °F 44.6 °F 93% 29.42 in 6.2 mi SSE 17.3 mph - N/A Rain Light Rain
9:00 PM 46 °F - 44 °F 90% 29.43 in 7 mi South 13.4 mph - - Rain Light Drizzle
9:00 PM 46.4 °F 40.1 °F 44.6 °F 93% 29.42 in 6.2 mi South 15.0 mph - N/A   Light Drizzle
9:30 PM 46.4 °F 39.2 °F 42.8 °F 87% 29.42 in 6.2 mi SW 18.4 mph - N/A   Scattered Clouds
10:00 PM 45 °F - 41 °F 82% 29.45 in 7 mi WSW 17.9 mph - - Rain Light Rain
10:00 PM 46.4 °F 39.5 °F 41.0 °F 81% 29.44 in 6.2 mi WSW 17.3 mph - N/A Rain Light Rain
10:30 PM 44.6 °F 35.3 °F 41.0 °F 87% 29.44 in 6.2 mi WSW 26.5 mph 38.0 mph N/A Rain Light Rain
11:00 PM 45 °F - 40 °F 78% 29.48 in 11 mi WSW 20.1 mph - - Rain Light Rain
11:00 PM 44.6 °F 36.4 °F 41.0 °F 87% 29.44 in 6.2 mi WSW 20.7 mph - N/A   Mostly Cloudy
11:30 PM 44.6 °F 35.7 °F 39.2 °F 81% 29.47 in 6.2 mi WSW 24.2 mph - N/A   Mostly Cloudy